When you browse on this site, cookies collect data to enhance your experience and personalize the content and advertising you see.
Visit our Privacy Policy to learn more. By continuing to use the site, you agree to this use of cookies and data.
  • In Hungary
  • List of Countries
  • For 7 days
  • Water Temperature
  • Weather Map
  • News
  • Weather Widgets
  • user-avatar
    Login

    Hourly Weather Fortoul

    Today, 8 December, Sunday

    Time Temperature Precipitation Wind Pressure Humidity
    00:00 +25°C° 0 mm 1 mps 739 mmHg 78%
    01:00 +24°C° 0 mm 1 mps 739 mmHg 77%
    02:00 +24°C° 0.1 mm 1 mps 739 mmHg 77%
    03:00 +24°C° 0.1 mm 1 mps 738 mmHg 78%
    04:00 +24°C° 0.1 mm 1 mps 738 mmHg 78%
    05:00 +24°C° 0 mm 1 mps 739 mmHg 76%
    06:00 +25°C° 0 mm 1 mps 739 mmHg 75%
    07:00 +25°C° 0 mm 1 mps 740 mmHg 73%
    08:00 +28°C° 0.1 mm 1 mps 740 mmHg 68%
    09:00 +30°C° 0.1 mm 2 mps 740 mmHg 63%
    10:00 +32°C° 0.1 mm 2 mps 740 mmHg 58%
    11:00 +32°C° 0.3 mm 2 mps 739 mmHg 60%
    12:00 +32°C° 0.3 mm 2 mps 738 mmHg 61%
    13:00 +33°C° 0.3 mm 3 mps 738 mmHg 63%
    14:00 +31°C° 0.4 mm 2 mps 737 mmHg 67%
    15:00 +31°C° 0.4 mm 2 mps 737 mmHg 72%
    16:00 +30°C° 0.4 mm 1 mps 736 mmHg 76%
    17:00 +29°C° 0.5 mm 1 mps 737 mmHg 81%
    18:00 +27°C° 0.5 mm 1 mps 737 mmHg 86%
    19:00 +26°C° 0.5 mm 1 mps 738 mmHg 91%
    20:00 +25°C° 0.4 mm 1 mps 738 mmHg 91%
    21:00 +25°C° 0.4 mm 1 mps 739 mmHg 91%
    22:00 +24°C° 0.4 mm 1 mps 739 mmHg 91%
    23:00 +24°C° 0.5 mm 1 mps 739 mmHg 92%

    Tomorrow, 9 December, Monday

    Time Temperature Precipitation Wind Pressure Humidity
    00:00 +24°C° 0.5 mm 1 mps 738 mmHg 93%
    01:00 +24°C° 0.5 mm 1 mps 738 mmHg 93%
    02:00 +24°C° 0.2 mm 1 mps 738 mmHg 93%
    03:00 +24°C° 0.2 mm 1 mps 738 mmHg 93%
    04:00 +23°C° 0.2 mm 1 mps 738 mmHg 92%
    05:00 +24°C° 0 mm 1 mps 738 mmHg 91%
    06:00 +24°C° 0 mm 1 mps 739 mmHg 89%
    07:00 +25°C° 0 mm 1 mps 740 mmHg 88%
    08:00 +26°C° 0.1 mm 1 mps 740 mmHg 82%
    09:00 +28°C° 0.1 mm 1 mps 740 mmHg 77%
    10:00 +29°C° 0.1 mm 2 mps 740 mmHg 71%
    11:00 +30°C° 0.2 mm 2 mps 739 mmHg 66%
    12:00 +31°C° 0.2 mm 2 mps 739 mmHg 61%
    13:00 +34°C° 0.2 mm 2 mps 738 mmHg 56%
    14:00 +32°C° 0.1 mm 2 mps 737 mmHg 59%
    15:00 +31°C° 0.1 mm 2 mps 737 mmHg 63%
    16:00 +31°C° 0.1 mm 1 mps 736 mmHg 67%
    17:00 +29°C° 0 mm 1 mps 737 mmHg 72%
    18:00 +27°C° 0 mm 1 mps 737 mmHg 78%
    19:00 +25°C° 0 mm 1 mps 738 mmHg 83%
    20:00 +25°C° 0 mm 1 mps 738 mmHg 82%
    21:00 +25°C° 0 mm 1 mps 739 mmHg 80%
    22:00 +24°C° 0 mm 1 mps 739 mmHg 79%
    23:00 +24°C° 0 mm 1 mps 739 mmHg 78%

    Day after tomorrow, 10 December, Tuesday

    Time Temperature Precipitation Wind Pressure Humidity
    00:00 +24°C° 0 mm 1 mps 739 mmHg 77%
    01:00 +23°C° 0 mm 1 mps 738 mmHg 76%
    02:00 +23°C° 0 mm 1 mps 738 mmHg 75%
    03:00 +23°C° 0 mm 1 mps 738 mmHg 74%
    04:00 +23°C° 0 mm 2 mps 738 mmHg 73%
    05:00 +23°C° 0 mm 2 mps 738 mmHg 70%
    06:00 +24°C° 0 mm 1 mps 739 mmHg 67%
    07:00 +25°C° 0 mm 1 mps 740 mmHg 64%
    08:00 +27°C° 0 mm 2 mps 740 mmHg 59%
    09:00 +30°C° 0 mm 2 mps 740 mmHg 53%
    10:00 +32°C° 0 mm 2 mps 740 mmHg 48%
    11:00 +34°C° 0 mm 2 mps 739 mmHg 47%
    12:00 +34°C° 0 mm 2 mps 738 mmHg 46%
    13:00 +35°C° 0 mm 2 mps 738 mmHg 45%
    14:00 +34°C° 0 mm 2 mps 737 mmHg 48%
    15:00 +34°C° 0 mm 2 mps 736 mmHg 50%
    16:00 +32°C° 0 mm 2 mps 736 mmHg 53%
    17:00 +30°C° 0 mm 2 mps 736 mmHg 61%
    18:00 +28°C° 0 mm 1 mps 737 mmHg 70%
    19:00 +26°C° 0 mm 1 mps 737 mmHg 78%
    20:00 +25°C° 0 mm 1 mps 738 mmHg 78%
    21:00 +25°C° 0 mm 1 mps 738 mmHg 79%
    22:00 +25°C° 0 mm 1 mps 739 mmHg 80%
    23:00 +24°C° 0 mm 1 mps 739 mmHg 79%

    11 December, Wednesday

    Time Temperature Precipitation Wind Pressure Humidity
    00:00 +24°C° 0 mm 1 mps 738 mmHg 78%
    01:00 +24°C° 0 mm 1 mps 738 mmHg 78%
    02:00 +24°C° 0 mm 1 mps 738 mmHg 76%
    03:00 +23°C° 0 mm 1 mps 738 mmHg 75%
    04:00 +23°C° 0 mm 1 mps 738 mmHg 73%
    05:00 +24°C° 0 mm 1 mps 738 mmHg 72%
    06:00 +25°C° 0 mm 1 mps 739 mmHg 70%
    07:00 +25°C° 0 mm 1 mps 739 mmHg 69%
    08:00 +27°C° 0 mm 1 mps 739 mmHg 65%
    09:00 +29°C° 0 mm 2 mps 739 mmHg 62%
    10:00 +31°C° 0 mm 2 mps 740 mmHg 58%
    11:00 +31°C° 0 mm 2 mps 739 mmHg 57%
    12:00 +32°C° 0 mm 2 mps 738 mmHg 55%
    13:00 +32°C° 0 mm 2 mps 737 mmHg 53%
    14:00 +32°C° 0 mm 2 mps 737 mmHg 55%
    15:00 +31°C° 0 mm 2 mps 736 mmHg 57%
    16:00 +31°C° 0 mm 2 mps 736 mmHg 59%
    17:00 +29°C° 0 mm 1 mps 736 mmHg 66%
    18:00 +28°C° 0 mm 1 mps 737 mmHg 73%
    19:00 +26°C° 0 mm 1 mps 737 mmHg 79%
    20:00 +26°C° 0 mm 1 mps 738 mmHg 79%
    21:00 +26°C° 0 mm 1 mps 738 mmHg 79%
    22:00 +26°C° 0 mm 1 mps 739 mmHg 78%
    23:00 +25°C° 0 mm 1 mps 738 mmHg 79%

    12 December, Thursday

    Time Temperature Precipitation Wind Pressure Humidity
    00:00 +25°C° 0 mm 1 mps 738 mmHg 80%
    01:00 +24°C° 0 mm 1 mps 737 mmHg 81%
    02:00 +24°C° 0 mm 1 mps 737 mmHg 81%
    03:00 +24°C° 0 mm 1 mps 737 mmHg 81%
    04:00 +24°C° 0 mm 1 mps 737 mmHg 81%
    05:00 +24°C° 0 mm 1 mps 737 mmHg 80%
    06:00 +25°C° 0 mm 1 mps 738 mmHg 78%
    07:00 +25°C° 0 mm 1 mps 738 mmHg 76%
    08:00 +27°C° 0 mm 1 mps 738 mmHg 69%
    09:00 +29°C° 0 mm 2 mps 738 mmHg 62%
    10:00 +32°C° 0 mm 2 mps 739 mmHg 55%
    11:00 +32°C° 0 mm 2 mps 738 mmHg 54%
    12:00 +32°C° 0 mm 2 mps 737 mmHg 53%
    13:00 +34°C° 0 mm 2 mps 737 mmHg 52%
    14:00 +34°C° 0 mm 2 mps 736 mmHg 54%
    15:00 +32°C° 0 mm 2 mps 735 mmHg 56%
    16:00 +32°C° 0 mm 2 mps 735 mmHg 57%
    17:00 +30°C° 0.1 mm 1 mps 735 mmHg 66%
    18:00 +28°C° 0.1 mm 1 mps 736 mmHg 75%
    19:00 +26°C° 0.1 mm 1 mps 736 mmHg 84%
    20:00 +26°C° 0.1 mm 1 mps 737 mmHg 85%
    21:00 +25°C° 0.1 mm 1 mps 737 mmHg 86%
    22:00 +25°C° 0.1 mm 1 mps 738 mmHg 87%
    23:00 +25°C° 0 mm 1 mps 738 mmHg 88%

    13 December, Friday

    Time Temperature Precipitation Wind Pressure Humidity
    00:00 +24°C° 0 mm 1 mps 737 mmHg 89%
    01:00 +24°C° 0 mm 1 mps 737 mmHg 90%
    02:00 +24°C° 0 mm 1 mps 737 mmHg 89%
    03:00 +24°C° 0 mm 1 mps 737 mmHg 88%
    04:00 +24°C° 0 mm 1 mps 736 mmHg 87%
    05:00 +24°C° 0 mm 1 mps 737 mmHg 84%
    06:00 +25°C° 0 mm 1 mps 737 mmHg 82%
    07:00 +26°C° 0 mm 1 mps 738 mmHg 79%
    08:00 +27°C° 0 mm 1 mps 738 mmHg 72%
    09:00 +29°C° 0 mm 2 mps 738 mmHg 65%
    10:00 +31°C° 0 mm 2 mps 739 mmHg 58%
    11:00 +32°C° 0 mm 2 mps 738 mmHg 57%
    12:00 +32°C° 0 mm 2 mps 737 mmHg 56%
    13:00 +32°C° 0 mm 2 mps 736 mmHg 55%
    14:00 +32°C° 0 mm 1 mps 736 mmHg 58%
    15:00 +31°C° 0 mm 1 mps 735 mmHg 61%
    16:00 +31°C° 0 mm 1 mps 735 mmHg 64%
    17:00 +29°C° 0.4 mm 1 mps 735 mmHg 72%
    18:00 +27°C° 0.4 mm 1 mps 736 mmHg 81%
    19:00 +24°C° 0.4 mm 0 mps 737 mmHg 89%
    20:00 +23°C° 0.7 mm 0 mps 737 mmHg 91%
    21:00 +23°C° 0.7 mm 0 mps 738 mmHg 92%
    22:00 +25°C° 0.7 mm 1 mps 738 mmHg 94%
    23:00 +24°C° 1.1 mm 1 mps 738 mmHg 94%
    Show more